Location: Cisewo
(53.3833°N, 14.9000°E)
Time: 12:18:51
(UTC+00:00)

Cosmos 2219 - Pass Details

Date: 18 April 2021
Orbit: 834 x 859 km, 71.1° (Epoch: 14 May)

Event Time Altitude Azimuth Distance (km) Brightness Sun altitude
Exits shadow 21:47:30 - 236° (SW) 2,977 5.9 -23.7°
Reaches altitude 10° 21:48:58 10° 240° (WSW) 2,445 5.5 -23.7°
Maximum altitude 21:54:19 45° 312° (NW) 1,137 4.2 -24.0°
Drops below altitude 10° 21:59:44 10° 25° (NNE) 2,463 6.2 -24.2°
Sets 22:02:18 0° 32° (NNE) 3,404 7.0 -24.3°
